Flag for South Africa Weather past 2 weeks in Stellenbosch, South Africa

Now
57 °F

Passing clouds.


Feels Like: 56 °F
Forecast: 55 / 80 °F
Wind: 6 mph from South

Location: Cape Town International Airport

Current Time: Mar 6, 2015 at 6:04:16 AM

Latest Report: Mar 6, 2015 at 5:00 AM


Visibility: N/A

Pressure: 29.95 "Hg

Humidity: 77%

Dew point: 50 °F

Location of StellenboschLocation

Historic Weather in Stellenbosch — Graph

°F

Stellenbosch temperature yesterday

Maximum temperature yesterday: 72 °F (at 11:00 AM)
Minimum temperature yesterday: 61 °F (at 6:00 AM)
Average temperature yesterday: 66 °F

Past Weeks' High & Low Weather Summary

 TemperatureHumidityPressure
High108 °F (Mar 3, 1:00 PM)94% (Feb 26, 5:00 AM)30.18 "Hg (Feb 26, 5:00 AM)
Low48 °F (Feb 22, 6:00 AM)11% (Mar 3, 1:00 PM)29.77 "Hg (Feb 26, 2:00 AM)
Average70 °F62%29.95 "Hg
* Reported Feb 19 4:00 AM — Mar 6 4:00 AM, Stellenbosch, Weather by CustomWeather, © 2015

Note: Actual official high and low records may vary slightly from our data, if they occured in-between our weather recording intervals... More about our weather records

Advertising

Stellenbosch weather history for previous 24 hours

 ConditionsComfort  
Time TempWeatherWind HumidityBarometerVisibility
4:00 AM
Fri, Mar 6
63 °FClear.10 mph68%29.95 "Hg10 mi
3:00 AM61 °FClear.8 mph77%29.95 "Hg10 mi
2:00 AM63 °FClear.12 mph68%29.98 "Hg10 mi
1:00 AM63 °FClear.20 mph68%29.98 "Hg10 mi
12:00 AM64 °FClear.17 mph64%30.01 "Hg10 mi
11:00 PM
Thu, Mar 5
64 °FClear.18 mph64%30.01 "Hg10 mi
10:00 PM64 °FPassing clouds.15 mph64%30.01 "HgN/A
9:00 PM64 °FClear.16 mph64%30.01 "Hg10 mi
8:00 PM64 °FClear.16 mph64%30.01 "Hg10 mi
7:00 PM64 °FClear.17 mph64%30.01 "Hg10 mi
6:00 PM66 °FSunny.24 mph60%30.01 "Hg10 mi
5:00 PM70 °FSunny.23 mph50%30.01 "Hg10 mi
4:00 PM72 °FSunny.22 mph47%30.04 "Hg10 mi
3:00 PM72 °FSunny.21 mph47%30.04 "Hg10 mi
2:00 PM72 °FSunny.22 mph50%30.07 "Hg10 mi
1:00 PM72 °FSunny.21 mph47%30.07 "Hg10 mi
12:00 PM72 °FPassing clouds.21 mph47%30.07 "HgN/A
11:00 AM72 °FPassing clouds.20 mph53%30.07 "HgN/A
10:00 AM70 °FPassing clouds.20 mph53%30.07 "HgN/A
9:00 AM68 °FPassing clouds.18 mph56%30.07 "HgN/A
8:00 AM64 °FPassing clouds.15 mph68%30.07 "HgN/A
7:00 AM61 °FPassing clouds.14 mph77%30.07 "HgN/A
6:00 AM61 °FPassing clouds.13 mph77%30.04 "HgN/A
Weather by CustomWeather, © 2015

See weather overviewHow to use our weather pages